Weather History for Fort Payne, AL

Change the Weather History Date:

Monday, December 31, 2012

  Actual Average (KRMG) Record (KRMG)
Temperature  
Mean Temperature 38 °F 41 °F  
Max Temperature 48 °F 51 °F 66 °F (2004)
Min Temperature 28 °F 31 °F 21 °F (2000)
Degree Days  
Heating Degree Days 27 24  
Month to date heating degree days 694  
Since 1 July heating degree days 1300  
Moisture  
Dew Point 28 °F    
Average Humidity 67    
Maximum Humidity 93    
Minimum Humidity 40    
Precipitation  
Precipitation 0.00 in 0.08 in 0.76 in (2006)
Month to date precipitation 4.38  
Year to date precipitation 51.92  
Snow  
Snow 0.00 in - - ()
Month to date snowfall  
Since 1 July snowfall  
Snow Depth -    
Sea Level Pressure  
Sea Level Pressure 30.26 in    
Wind  
Wind Speed 1 mph (SW)    
Max Wind Speed 8 mph    
Max Gust Speed -    
Visibility 10 miles    
Events      
T = Trace of Precipitation, MM = Missing Value Source: NWS Daily Summary

Daily Weather History Graph

Daily Weather History Graph

Search for Another Location

Airport:

Trip Planner

Search our weather history database for the weather conditions in past years. The results will help you decide how hot, cold, wet, or windy it might be!

Date:

Astronomy

Dec. 31, 2012 Rise Set
Actual Time 6:49 AM CST 4:43 PM CST
Civil Twilight 6:21 AM CST 5:10 PM CST
Nautical Twilight 5:50 AM CST 5:42 PM CST
Astronomical Twilight 5:19 AM CST 6:12 PM CST
Moon 8:03 PM CST (12/31) 8:38 AM CST (12/31)
Length of Visible Light 10h 49m
Length of Day
9h 53m
Waning Gibbous, 90% of the Moon is Illuminated
Dec 31
Waning Gibbous
Jan 4
Last Quarter
Jan 11
New
Jan 18
First Quarter
Jan 26
Full

Hourly Weather History & Observations

Time (CST) Temp. Windchill Dew Point Humidity Pressure Visibility Wind Dir Wind Speed Gust Speed Precip Events Conditions
12:15 AM 28.4 °F - 26.6 °F 93% 30.36 in 10.0 mi Calm Calm - N/A   Clear
12:35 AM 28.4 °F - 26.6 °F 93% 30.37 in 10.0 mi Calm Calm - N/A   Clear
12:55 AM 28.4 °F - 26.6 °F 93% 30.36 in 10.0 mi Calm Calm - N/A   Clear
1:15 AM 28.4 °F - 26.6 °F 93% 30.36 in 10.0 mi Calm Calm - N/A   Clear
1:35 AM 28.4 °F - 26.6 °F 93% 30.36 in 10.0 mi Calm Calm - N/A   Clear
1:55 AM 28.4 °F - 26.6 °F 93% 30.36 in 10.0 mi Calm Calm - N/A   Clear
2:15 AM 30.2 °F - 26.6 °F 86% 30.36 in 10.0 mi Calm Calm - N/A   Clear
2:35 AM 30.2 °F - 26.6 °F 86% 30.37 in 10.0 mi Calm Calm - N/A   Clear
2:55 AM 30.2 °F - 26.6 °F 86% 30.37 in 10.0 mi Calm Calm - N/A   Clear
3:15 AM 30.2 °F - 26.6 °F 86% 30.36 in 10.0 mi Calm Calm - N/A   Clear
3:35 AM 30.2 °F - 26.6 °F 86% 30.35 in 10.0 mi Calm Calm - N/A   Clear
3:55 AM 30.2 °F - 26.6 °F 86% 30.34 in 10.0 mi Calm Calm - N/A   Clear
4:15 AM 30.2 °F - 28.4 °F 93% 30.35 in 10.0 mi Calm Calm - N/A   Clear
4:35 AM 30.2 °F - 28.4 °F 93% 30.35 in 10.0 mi Calm Calm - N/A   Clear
4:55 AM 30.2 °F - 28.4 °F 93% 30.36 in 10.0 mi Calm Calm - N/A   Clear
5:15 AM 30.2 °F - 28.4 °F 93% 30.36 in 10.0 mi Calm Calm - N/A   Clear
5:35 AM 30.2 °F - 26.6 °F 86% 30.36 in 10.0 mi Calm Calm - N/A   Clear
5:55 AM 30.2 °F - 26.6 °F 86% 30.35 in 10.0 mi Calm Calm - N/A   Clear
6:15 AM 30.2 °F - 28.4 °F 93% 30.35 in 10.0 mi Calm Calm - N/A   Clear
6:35 AM 30.2 °F - 28.4 °F 93% 30.35 in 10.0 mi Calm Calm - N/A   Clear
6:55 AM 30.2 °F - 26.6 °F 86% 30.33 in 10.0 mi Calm Calm - N/A   Clear
7:15 AM 30.2 °F - 28.4 °F 93% 30.33 in 10.0 mi Calm Calm - N/A   Clear
7:35 AM 30.2 °F - 28.4 °F 93% 30.34 in 10.0 mi Calm Calm - N/A   Clear
7:55 AM 32.0 °F - 28.4 °F 87% 30.34 in 10.0 mi Calm Calm - N/A   Clear
8:15 AM 32.0 °F - 28.4 °F 87% 30.33 in 10.0 mi Calm Calm - N/A   Clear
8:35 AM 32.0 °F - 30.2 °F 93% 30.36 in 10.0 mi Calm Calm - N/A   Clear
8:55 AM 35.6 °F - 28.4 °F 75% 30.36 in 10.0 mi Calm Calm - N/A   Clear
9:15 AM 35.6 °F - 30.2 °F 81% 30.36 in 10.0 mi Calm Calm - N/A   Clear
9:35 AM 37.4 °F - 26.6 °F 65% 30.34 in 10.0 mi Calm Calm - N/A   Clear
9:55 AM 41.0 °F - 26.6 °F 57% 30.33 in 10.0 mi Calm Calm - N/A   Clear
10:15 AM 42.8 °F - 26.6 °F 53% 30.33 in 10.0 mi Calm Calm - N/A   Clear
10:35 AM 44.6 °F - 26.6 °F 49% 30.33 in 10.0 mi Calm Calm - N/A   Clear
10:55 AM 46.4 °F - 24.8 °F 43% 30.32 in 10.0 mi Calm Calm - N/A   Clear
11:15 AM 46.4 °F - 23.0 °F 40% 30.29 in 10.0 mi Calm Calm - N/A   Clear
11:35 AM 48.2 °F - 26.6 °F 43% 30.29 in 10.0 mi SW 8.1 mph - N/A   Scattered Clouds
11:55 AM 46.4 °F - 24.8 °F 43% 30.28 in 10.0 mi Calm Calm - N/A   Mostly Cloudy
12:15 PM 46.4 °F 42.4 °F 24.8 °F 43% 30.26 in 10.0 mi SW 8.1 mph - N/A   Overcast
12:35 PM 48.2 °F - 24.8 °F 40% 30.24 in 10.0 mi SW 6.9 mph - N/A   Overcast
12:55 PM 48.2 °F - 24.8 °F 40% 30.23 in 10.0 mi WSW 5.8 mph - N/A   Overcast
1:15 PM 48.2 °F - 24.8 °F 40% 30.22 in 10.0 mi SW 6.9 mph - N/A   Overcast
1:35 PM 48.2 °F - 24.8 °F 40% 30.22 in 10.0 mi SSW 6.9 mph - N/A   Overcast
1:55 PM 46.4 °F 42.4 °F 24.8 °F 43% 30.22 in 10.0 mi SW 8.1 mph - N/A   Overcast
2:15 PM 46.4 °F 42.9 °F 24.8 °F 43% 30.22 in 10.0 mi SW 6.9 mph - N/A   Overcast
2:35 PM 46.4 °F - 24.8 °F 43% 30.21 in 10.0 mi Calm Calm - N/A   Overcast
2:55 PM 46.4 °F 45.2 °F 24.8 °F 43% 30.21 in 10.0 mi SSW 3.5 mph - N/A   Overcast
3:15 PM 46.4 °F - 26.6 °F 46% 30.19 in 10.0 mi Calm Calm - N/A   Overcast
3:35 PM 46.4 °F - 26.6 °F 46% 30.21 in 10.0 mi Calm Calm - N/A   Overcast
3:55 PM 46.4 °F - 26.6 °F 46% 30.20 in 10.0 mi Calm Calm - N/A   Overcast
4:15 PM 46.4 °F - 26.6 °F 46% 30.19 in 10.0 mi Calm Calm - N/A   Overcast
4:35 PM 46.4 °F - 28.4 °F 50% 30.20 in 10.0 mi Calm Calm - N/A   Overcast
4:55 PM 46.4 °F - 28.4 °F 50% 30.21 in 10.0 mi Calm Calm - N/A   Overcast
5:15 PM 46.4 °F - 28.4 °F 50% 30.19 in 10.0 mi Calm Calm - N/A   Overcast
5:35 PM 46.4 °F - 28.4 °F 50% 30.18 in 10.0 mi Calm Calm - N/A   Overcast
6:15 PM 46.4 °F - 28.4 °F 50% 30.18 in 10.0 mi Calm Calm - N/A   Overcast
6:35 PM 44.6 °F - 30.2 °F 57% 30.18 in 10.0 mi Calm Calm - N/A   Overcast
6:55 PM 44.6 °F - 30.2 °F 57% 30.16 in 10.0 mi Calm Calm - N/A   Overcast
7:35 PM 44.6 °F - 30.2 °F 57% 30.16 in 10.0 mi Calm Calm - N/A   Overcast
7:55 PM 44.6 °F - 32.0 °F 61% 30.16 in 10.0 mi Calm Calm - N/A   Overcast
8:35 PM 46.4 °F - 30.2 °F 53% 30.14 in 10.0 mi Calm Calm - N/A   Overcast
9:35 PM 44.6 °F - 32.0 °F 61% 30.11 in 10.0 mi Calm Calm - N/A   Clear
9:55 PM 46.4 °F 43.5 °F 33.8 °F 62% 30.10 in 10.0 mi SSW 5.8 mph - N/A   Clear
10:15 PM 46.4 °F 43.5 °F 32.0 °F 57% 30.10 in 10.0 mi SSW 5.8 mph - N/A   Clear
10:35 PM 46.4 °F 44.3 °F 33.8 °F 62% 30.09 in 10.0 mi SW 4.6 mph - N/A   Clear
10:55 PM 46.4 °F 42.9 °F 33.8 °F 62% 30.08 in 10.0 mi WSW 6.9 mph - N/A   Mostly Cloudy
11:15 PM 46.4 °F - 33.8 °F 62% 30.08 in 10.0 mi Calm Calm - N/A   Overcast
11:35 PM 46.4 °F - 33.8 °F 62% 30.08 in 10.0 mi Calm Calm - N/A   Overcast
11:55 PM 46.4 °F - 33.8 °F 62% 30.08 in 10.0 mi Calm Calm - N/A   Overcast